Date,TemperatureHighF,TemperatureAvgF,TemperatureLowF,DewpointHighF,DewpointAvgF,DewpointLowF,HumidityHigh,HumidityAvg,HumidityLow,PressureMaxIn,PressureMinIn,WindSpeedMaxMPH,WindSpeedAvgMPH,GustSpeedMaxMPH,PrecipitationSumIn
2013-1-1,48,45,40,48,43,30,98,92,62,30.22,30.03,11,1,13,0.91
2013-1-2,46,38,36,46,38,35,98,97,94,30.24,30.02,19,4,25,0.00
2013-1-3,38,35,30,35,32,28,98,91,78,30.45,30.20,15,4,16,0.00
2013-1-4,42,32,25,28,25,22,93,76,48,30.51,30.40,16,3,19,0.00
2013-1-5,50,36,25,35,26,19,92,69,30,30.49,30.35,11,1,14,0.02
2013-1-6,45,39,36,40,36,32,97,89,77,30.36,30.22,21,3,23,0.03
2013-1-7,56,39,27,34,29,24,95,70,33,30.48,30.33,13,1,14,0.00
2013-1-8,58,45,35,49,39,28,94,78,63,30.48,30.36,7,1,10,0.00
2013-1-9,57,54,51,56,53,49,98,95,93,30.49,30.40,5,1,5,0.03
2013-1-10,66,58,52,59,54,52,98,87,68,30.48,30.23,11,1,13,0.01
2013-1-11,63,60,58,62,59,55,99,96,89,30.23,30.12,12,2,18,0.25
2013-1-12,71,64,60,64,60,57,99,89,65,30.15,30.03,11,2,13,0.01
2013-1-13,65,62,60,61,59,57,97,88,80,30.09,29.98,13,2,20,1.19
2013-1-14,60,49,42,59,49,42,98,98,96,30.23,30.02,17,2,18,1.17
2013-1-15,60,50,43,60,50,43,99,99,98,30.18,30.00,7,1,9,1.29
2013-1-16,60,55,49,60,55,49,99,99,99,30.04,29.93,16,2,18,0.45
2013-1-17,49,41,33,49,41,31,99,98,93,30.35,29.71,34,4,34,0.93
2013-1-18,50,36,29,36,31,27,95,82,47,30.60,30.35,8,2,8,0.01
2013-1-19,52,39,29,33,30,26,95,72,40,30.54,30.31,11,1,14,0.00
2013-1-20,56,41,30,38,32,28,95,73,40,30.31,30.19,16,2,17,0.00
2013-1-21,47,36,29,35,26,17,96,71,41,30.27,30.17,23,5,25,0.00
2013-1-22,37,28,22,18,11,7,63,48,34,30.41,30.25,24,8,26,0.00
2013-1-23,48,36,28,32,20,9,72,53,44,30.48,30.25,17,3,19,0.00
2013-1-24,46,37,26,40,23,4,82,59,25,30.44,30.21,25,7,29,0.00
2013-1-25,38,32,26,37,26,12,97,80,44,30.44,30.22,14,1,14,0.31
2013-1-26,48,38,32,37,32,27,97,80,45,30.40,30.25,16,3,16,0.00
2013-1-27,52,40,29,37,32,27,94,75,51,30.54,30.39,9,1,10,0.00
2013-1-28,53,23,42,47,-30,-100,83,37,64,30.49,30.34,14,1,14,0.00
2013-1-29,48,0,48,48,-99,-100,98,1,98,30.35,30.01,9,2,12,0.00
2013-1-30,-200,0,200,-100,-100,-100,0,0,100,30.01,29.56,29,4,48,0.00
2013-1-31,43,12,34,28,-60,-100,72,18,48,30.18,29.74,30,6,32,0.01
2013-2-1,33,7,27,13,-76,-100,49,9,39,30.46,30.14,33,8,33,0.00
2013-2-2,23,0,23,19,-99,-100,83,1,83,30.45,30.09,11,1,14,0.00
2013-2-3,47,12,37,36,-65,-100,92,17,51,30.17,30.01,22,5,27,0.15
2013-2-4,-200,0,200,-100,-100,-100,0,0,100,30.19,29.99,9,1,10,0.00
2013-2-5,60,15,46,45,-62,-100,87,17,41,30.07,29.95,10,2,13,0.00
2013-2-6,62,8,54,32,-82,-100,35,4,29,30.23,30.07,12,2,15,0.00
2013-2-7,-200,0,200,-100,-100,-100,0,0,100,30.17,29.95,10,1,10,0.00
2013-2-8,52,8,42,45,-77,-100,85,12,66,30.26,29.92,31,6,31,0.01
2013-2-9,61,13,52,33,-72,-100,43,7,24,30.35,30.21,12,1,13,0.00
2013-2-10,48,0,48,30,-99,-100,50,0,50,30.31,30.07,15,2,18,0.00
2013-2-11,-200,0,200,-100,-100,-100,0,0,100,30.14,30.03,11,1,15,0.00
2013-2-12,49,2,43,36,-95,-100,70,2,60,30.14,29.84,11,1,11,0.00
2013-2-13,46,1,46,45,-97,-100,98,2,97,29.97,29.69,25,4,28,0.00
2013-2-14,55,11,38,36,-72,-100,78,11,45,30.10,29.96,18,4,19,0.00
2013-2-15,55,4,40,42,-87,-100,89,6,55,30.15,30.02,19,3,23,0.00
2013-2-16,35,9,29,26,-67,-100,83,16,47,30.20,29.99,26,8,32,0.00
2013-2-17,41,8,28,16,-76,-100,52,9,33,30.35,30.20,23,4,25,0.00
2013-2-18,56,8,49,30,-80,-100,45,6,34,30.41,30.11,14,2,16,0.00
2013-2-19,53,7,44,43,-81,-100,96,6,33,30.19,30.00,32,5,32,0.00
2013-2-20,37,0,37,13,-98,-100,36,0,35,30.24,30.17,23,5,24,0.00
2013-2-21,48,1,41,22,-97,-100,45,1,36,30.27,29.95,10,1,14,0.00
2013-2-22,-200,0,200,-100,-100,-100,0,0,100,30.14,30.00,11,1,12,0.00
2013-2-23,56,24,43,53,-29,-100,98,44,84,30.01,29.84,7,1,9,0.00
2013-2-24,56,42,33,43,34,26,98,78,34,30.08,29.93,13,2,14,0.00
2013-2-25,54,43,32,41,33,28,90,71,46,30.10,29.89,11,2,14,0.00
2013-2-26,51,45,39,49,42,35,97,90,74,29.89,29.56,18,3,24,0.79
2013-2-27,55,42,37,39,35,31,91,75,48,29.94,29.79,20,4,26,0.03
2013-2-28,39,35,33,32,28,26,85,77,70,30.07,29.89,24,7,24,0.00
2013-3-1,37,34,32,31,30,26,94,85,76,30.08,30.02,17,5,17,0.00
2013-3-2,33,31,28,31,29,24,96,93,84,30.13,30.01,20,6,22,0.01
2013-3-3,36,28,24,26,22,19,90,77,59,30.19,30.10,22,8,24,0.01
2013-3-4,57,38,23,31,24,19,86,62,34,30.29,30.11,8,1,9,0.01
2013-3-5,54,47,33,52,42,28,96,84,56,30.15,29.67,34,5,44,0.50
2013-3-6,34,8,28,28,-66,-100,93,22,72,30.30,29.91,39,12,42,0.00
2013-3-7,48,11,30,34,-66,-100,89,17,56,30.33,30.20,19,5,21,0.00
2013-3-8,59,19,32,31,-55,-100,92,13,24,30.40,30.27,17,2,17,0.00
2013-3-9,62,34,36,33,-16,-100,80,27,29,30.33,30.21,9,1,12,0.00
2013-3-10,65,56,48,44,34,30,64,45,29,30.22,30.08,11,2,17,0.00
2013-3-11,59,54,48,53,50,44,97,86,65,30.09,29.78,16,3,19,0.00
2013-3-12,52,43,35,46,36,31,96,78,47,30.17,29.87,22,8,23,0.01
2013-3-13,46,39,31,32,26,20,78,62,42,30.35,30.15,34,9,34,0.00
2013-3-14,49,36,25,31,19,12,79,53,27,30.45,30.33,26,7,26,0.00
2013-3-15,69,50,31,44,36,29,92,63,37,30.35,30.02,15,2,18,0.00
2013-3-16,74,62,54,49,44,42,68,53,38,30.02,29.84,19,4,19,0.00
2013-3-17,69,60,53,53,48,44,84,65,51,29.99,29.89,16,2,19,0.00
2013-3-18,57,53,48,54,50,47,97,90,77,29.96,29.83,30,2,31,0.67
2013-3-19,58,48,38,48,34,16,98,63,30,30.17,29.91,24,7,28,0.00
2013-3-20,55,43,34,31,20,13,77,42,19,30.20,29.96,29,5,35,0.00
2013-3-21,42,32,23,28,16,8,78,53,30,30.08,29.97,21,7,26,0.00
2013-3-22,46,37,28,31,23,15,74,57,41,30.15,30.07,5,1,6,0.00
2013-3-23,54,46,39,50,42,29,97,88,60,30.11,29.82,9,1,9,0.18
2013-3-24,55,49,39,53,46,32,98,92,73,29.91,29.50,24,3,34,1.15
2013-3-25,39,33,30,32,26,22,81,75,66,30.13,29.69,26,8,34,0.00
2013-3-26,38,32,28,30,27,24,92,83,68,30.38,30.11,23,8,27,0.01
2013-3-27,50,38,30,29,25,22,86,64,37,30.43,30.34,24,7,25,0.00
2013-3-28,56,42,29,32,26,20,82,56,32,30.42,30.33,23,4,27,0.00
2013-3-29,58,42,30,39,31,26,87,67,35,30.42,30.26,9,2,9,0.00
2013-3-30,69,52,42,52,43,37,97,74,34,30.26,30.04,14,2,20,0.27
2013-3-31,60,55,52,56,54,52,98,95,80,30.03,29.89,12,2,17,0.32
2013-4-1,64,54,44,54,46,37,98,77,50,30.08,29.90,23,4,24,0.01
2013-4-2,59,47,37,38,29,17,77,52,26,30.25,30.08,18,4,18,0.00
2013-4-3,61,50,39,35,30,25,71,47,33,30.26,30.17,12,2,13,0.00
2013-4-4,52,42,39,41,39,30,97,89,44,30.21,30.01,11,2,11,0.65
2013-4-5,61,49,40,47,41,35,98,76,40,30.13,30.01,20,5,24,0.00
2013-4-6,71,53,35,44,37,33,95,60,27,30.24,30.12,14,1,16,0.00
2013-4-7,72,60,49,48,43,36,70,53,38,30.20,30.07,12,1,15,0.00
2013-4-8,76,64,55,54,50,45,83,62,42,30.13,30.05,13,1,16,0.00
2013-4-9,81,68,54,58,54,51,88,63,39,30.19,30.05,13,2,17,0.00
2013-4-10,85,70,58,59,56,53,89,62,36,30.10,29.90,12,1,15,0.00
2013-4-11,78,68,60,64,58,54,98,73,52,29.91,29.64,14,2,22,0.95
2013-4-12,66,58,51,61,49,38,98,75,40,29.96,29.59,21,5,25,0.34
2013-4-13,72,57,43,42,38,31,85,54,26,30.10,29.96,21,4,21,0.00
2013-4-14,64,53,42,52,44,37,87,71,42,30.08,29.95,11,1,17,0.01
2013-4-15,79,64,54,58,55,51,95,75,46,30.14,29.96,10,1,14,0.00
2013-4-16,82,68,58,63,59,55,92,76,52,30.24,30.13,8,1,10,0.00
2013-4-17,85,68,60,64,61,58,98,79,45,30.21,30.05,14,1,19,0.49
2013-4-18,78,67,59,62,59,55,98,77,50,30.07,29.85,13,2,19,0.00
2013-4-19,69,58,42,63,53,36,97,84,72,30.06,29.72,22,6,25,0.64
2013-4-20,60,47,33,36,32,28,92,60,35,30.31,30.06,24,6,25,0.00
2013-4-21,69,52,35,41,35,30,92,59,26,30.40,30.26,12,1,12,0.00
2013-4-22,73,57,45,42,39,33,80,55,27,30.36,30.14,9,1,11,0.00
2013-4-23,75,58,42,47,41,35,84,55,35,30.24,30.07,12,1,14,0.00
2013-4-24,70,59,46,59,53,45,97,81,62,30.18,30.04,22,3,23,0.19
2013-4-25,65,51,38,45,37,22,97,66,22,30.39,30.18,19,4,20,0.00
2013-4-26,75,55,36,50,38,31,94,60,23,30.45,30.29,12,1,13,0.10
2013-4-27,57,53,51,53,51,50,98,93,82,30.40,30.18,8,1,9,0.60
2013-4-28,56,54,52,55,53,51,99,97,91,30.20,29.99,16,1,19,2.21
2013-4-29,72,59,52,59,53,50,99,83,49,30.08,29.96,10,1,15,0.00
2013-4-30,79,62,46,59,53,45,98,76,46,30.11,29.99,11,1,13,0.00
2013-5-1,75,64,58,58,55,50,88,72,46,30.19,30.10,6,1,11,0.00
2013-5-2,73,62,56,59,55,51,89,76,57,30.19,30.12,14,2,14,0.00
2013-5-3,66,59,57,55,53,50,88,81,62,30.14,29.98,15,3,17,0.00
2013-5-4,58,53,50,51,50,44,97,87,69,29.98,29.86,13,3,18,0.60
2013-5-5,57,53,47,55,51,46,98,95,86,29.88,29.77,13,1,16,0.77
2013-5-6,53,48,44,49,46,43,98,95,84,29.95,29.81,6,0,8,0.00
2013-5-7,69,55,47,55,50,46,98,85,50,30.01,29.92,20,2,22,0.01
2013-5-8,73,60,50,59,54,50,98,82,54,30.08,29.97,16,2,19,0.00
2013-5-9,81,64,49,61,55,48,98,75,34,30.14,30.04,15,2,18,0.00
2013-5-10,73,64,54,61,57,53,97,79,58,30.10,29.96,18,1,18,0.00
2013-5-11,74,62,56,64,59,54,98,90,66,29.99,29.87,21,2,32,0.33
2013-5-12,64,55,49,54,43,32,95,67,35,30.15,29.97,21,7,23,0.00
2013-5-13,64,52,38,41,35,29,94,56,28,30.27,30.14,23,4,26,0.00
2013-5-14,76,58,39,55,46,36,93,67,40,30.29,30.12,12,1,15,0.00
2013-5-15,84,70,55,60,55,49,92,62,31,30.18,30.00,19,3,20,0.00
2013-5-16,82,67,56,63,58,54,93,76,48,30.08,29.98,7,0,10,0.00
2013-5-17,81,68,58,65,60,54,95,77,46,30.10,30.01,7,0,8,0.00
2013-5-18,70,65,62,66,63,61,98,94,87,30.07,30.02,7,0,8,0.27
2013-5-19,68,64,59,67,63,59,99,98,96,30.11,29.95,18,1,21,0.65
2013-5-20,83,68,56,73,64,56,99,87,62,30.14,30.00,8,1,9,0.01
2013-5-21,85,71,62,73,67,62,99,86,58,30.04,29.89,10,1,13,0.07
2013-5-22,83,69,60,72,63,58,98,83,51,30.00,29.83,14,1,17,0.11
2013-5-23,81,69,62,65,60,54,98,74,46,29.98,29.89,24,5,27,0.00
2013-5-24,68,61,53,55,49,40,87,67,37,30.25,29.98,27,8,30,0.00
2013-5-25,79,59,42,51,43,31,96,62,23,30.36,30.20,16,2,17,0.00
2013-5-26,78,62,48,56,49,40,91,64,29,30.30,30.18,12,2,14,0.00
2013-5-27,82,67,51,62,56,49,93,70,45,30.25,30.11,10,0,10,0.00
2013-5-28,85,73,64,62,60,55,84,66,39,30.18,30.09,7,1,11,0.00
2013-5-29,85,71,61,67,61,54,93,72,40,30.19,30.10,7,1,13,0.00
2013-5-30,83,71,61,67,63,58,93,76,53,30.22,30.10,8,1,10,0.00
2013-5-31,84,72,64,67,64,61,91,75,52,30.18,30.06,10,1,13,0.00
2013-6-1,83,72,66,70,66,62,98,81,60,30.08,29.97,8,1,9,0.56
2013-6-2,75,69,66,74,68,64,99,97,89,29.99,29.86,12,0,19,2.78
2013-6-3,79,70,64,69,65,62,99,86,59,29.98,29.87,18,3,20,0.00
2013-6-4,82,69,56,69,61,55,99,80,49,30.03,29.96,7,0,9,0.00
2013-6-5,83,69,63,72,65,61,98,88,62,30.03,29.90,29,1,30,1.19
2013-6-6,77,68,62,73,66,62,99,93,77,29.93,29.75,6,0,8,0.12
2013-6-7,82,68,63,71,66,63,99,91,59,29.86,29.69,16,2,19,0.22
2013-6-8,79,67,61,70,64,60,99,90,63,30.08,29.85,8,0,9,0.01
2013-6-9,82,70,62,72,67,61,98,91,65,30.10,29.97,8,0,9,0.13
2013-6-10,78,70,64,70,66,63,98,88,69,30.00,29.91,12,1,13,0.03
2013-6-11,84,74,66,75,70,66,99,88,67,30.03,29.94,15,2,15,0.02
2013-6-12,87,75,65,77,70,64,98,86,60,30.06,29.95,15,2,15,0.00
2013-6-13,87,75,68,75,70,66,98,86,60,29.95,29.69,22,3,28,0.01
2013-6-14,80,69,58,66,61,57,97,77,51,30.03,29.84,16,3,17,0.01
2013-6-15,83,69,57,67,62,55,97,79,48,30.14,30.03,7,0,8,1.05
2013-6-16,85,72,60,70,64,58,97,80,50,30.15,30.00,8,0,9,0.16
2013-6-17,80,70,66,73,68,65,98,94,74,30.04,29.93,12,0,21,0.50
2013-6-18,74,69,65,73,68,65,99,97,91,29.93,29.84,12,2,18,0.36
2013-6-19,81,70,61,72,66,61,99,88,63,30.07,29.91,8,1,9,0.00
2013-6-20,82,68,62,72,65,61,98,90,61,30.21,30.07,10,0,10,2.22
2013-6-21,80,68,62,72,65,61,99,92,63,30.25,30.16,9,0,12,0.01
2013-6-22,82,69,59,72,63,58,99,83,55,30.26,30.09,5,0,7,0.01
2013-6-23,82,70,60,74,66,59,97,89,67,30.20,30.09,11,1,13,0.01
2013-6-24,84,73,64,74,68,64,98,86,60,30.22,30.07,9,1,10,0.00
2013-6-25,80,71,64,75,69,63,98,93,75,30.15,30.03,10,0,15,0.11
2013-6-26,84,73,65,75,70,64,99,89,70,30.07,29.91,15,1,17,0.00
2013-6-27,83,74,68,75,71,67,98,91,73,29.96,29.78,17,2,26,0.14
2013-6-28,87,73,65,76,69,64,99,88,54,29.84,29.64,19,2,19,0.47
2013-6-29,82,72,64,71,65,60,99,81,50,29.71,29.65,11,2,14,0.01
2013-6-30,84,71,60,67,62,55,97,76,40,29.78,29.69,9,0,9,0.00
2013-7-1,79,69,62,70,66,62,97,90,70,29.91,29.77,8,0,14,0.02
2013-7-2,79,70,64,75,67,63,97,89,70,30.07,29.90,11,0,16,0.20
2013-7-3,70,67,64,68,66,63,98,96,89,30.17,30.05,6,0,8,0.72
2013-7-4,73,68,64,71,67,63,99,98,92,30.17,30.09,4,0,8,0.32
2013-7-5,76,69,66,71,68,66,99,95,77,30.20,30.12,6,0,8,0.18
2013-7-6,77,70,67,73,69,66,99,96,85,30.15,30.08,11,0,11,0.71
2013-7-7,77,71,67,72,69,67,99,95,82,30.16,30.09,5,0,5,0.09
2013-7-8,84,73,68,76,70,67,99,92,69,30.19,30.08,7,0,9,0.24
2013-7-9,84,73,68,78,71,67,99,93,73,30.16,30.05,9,1,10,0.49
2013-7-10,84,72,68,78,70,67,99,94,69,30.10,29.94,24,0,24,0.02
2013-7-11,83,73,68,76,70,68,99,93,74,29.97,29.86,12,1,14,0.02
2013-7-12,83,73,67,74,69,65,99,87,64,29.95,29.87,19,3,20,0.00
2013-7-13,80,70,65,71,67,64,97,88,73,30.07,29.93,7,0,11,0.00
2013-7-14,77,70,66,74,68,66,98,93,81,30.22,30.05,9,0,9,0.13
2013-7-15,69,69,68,67,67,66,95,94,92,30.22,30.21,2,0,2,0.00
2013-8-3,79,71,63,73,68,62,98,89,71,30.06,29.99,11,1,13,0.00
2013-8-4,82,73,66,72,69,65,98,88,69,30.05,30.01,17,3,19,0.00
2013-8-17,65,64,64,64,63,63,97,97,97,30.15,30.10,1,0,2,0.59
2013-8-18,72,67,63,70,66,62,98,97,89,30.21,30.11,4,0,5,0.49
2013-8-19,78,69,65,74,68,64,98,95,81,30.17,30.06,11,0,11,0.54
2013-8-20,80,70,63,73,68,62,98,92,75,30.18,30.09,5,0,6,0.00
2013-8-21,73,69,66,72,68,65,97,97,94,30.23,30.13,7,0,8,1.18
2013-8-22,82,71,66,76,69,65,98,94,76,30.20,30.06,11,1,11,0.03
2013-8-23,82,72,66,75,69,65,98,89,66,30.10,29.98,11,1,11,0.01
2013-8-24,84,71,64,74,68,63,98,90,68,30.25,30.06,7,0,7,0.01
2013-8-25,80,68,60,68,63,58,96,83,58,30.37,30.24,4,0,5,0.00
2013-8-26,80,68,57,70,63,56,97,86,60,30.34,30.15,9,1,9,0.00
2013-8-27,81,68,59,72,65,58,98,90,65,30.18,30.05,11,1,11,0.00
2013-8-28,84,72,62,74,68,61,98,88,68,30.09,29.99,9,2,14,0.00
2013-8-29,85,74,67,77,71,66,97,89,69,30.03,29.92,12,2,13,0.00
2013-8-30,86,74,67,77,71,66,98,91,70,30.02,29.92,11,0,11,0.00
2013-8-31,88,75,67,77,71,66,97,88,65,29.98,29.84,10,1,10,0.00
2013-9-1,84,72,68,76,70,67,97,93,75,29.93,29.83,13,1,13,0.06
2013-9-2,80,71,66,74,69,65,98,94,75,29.97,29.86,11,1,11,0.00
2013-9-3,84,73,67,74,69,65,98,87,61,29.99,29.86,14,2,15,0.02
2013-9-4,83,71,63,72,67,62,98,88,62,30.11,29.98,10,1,10,0.00
2013-9-5,83,70,62,71,66,61,98,88,59,30.15,30.08,11,1,12,0.00
2013-9-6,83,70,59,71,65,58,98,86,59,30.17,30.06,8,0,8,0.00
2013-9-7,82,70,60,72,66,59,98,88,63,30.14,30.01,7,0,9,0.00
2013-9-8,83,71,61,71,66,60,97,85,60,30.04,29.95,19,2,19,0.03
2013-9-9,84,70,62,73,67,61,97,91,65,30.14,30.01,8,0,8,0.48
2013-9-10,84,72,63,73,68,62,98,89,60,30.24,30.14,5,0,5,0.01
2013-9-11,85,72,62,72,67,61,98,86,57,30.25,30.10,12,1,12,0.00
2013-9-12,82,71,64,74,68,63,97,91,71,30.11,29.91,19,1,19,0.00
2013-9-13,76,68,56,69,62,52,97,81,58,29.93,29.85,14,4,21,0.00
2013-9-14,77,61,49,61,55,48,96,83,53,30.11,29.92,8,0,8,0.00
2013-9-15,80,65,53,65,59,52,96,83,53,30.20,30.11,9,0,9,0.00
2013-9-16,80,68,58,67,62,57,97,81,51,30.18,30.09,11,1,12,0.00
2013-9-17,76,66,61,65,61,57,95,83,63,30.22,30.14,6,0,6,0.00
2013-9-18,73,65,59,64,60,55,95,83,67,30.25,30.15,4,0,6,0.00
2013-9-19,81,66,56,68,61,55,97,86,58,30.22,30.08,9,1,9,0.00
2013-9-20,82,69,58,68,63,57,97,83,56,30.11,29.91,7,0,8,0.00
2013-9-21,70,65,59,66,63,57,97,93,84,29.93,29.73,15,2,16,1.81
2013-9-22,72,60,52,63,56,52,98,88,63,29.94,29.80,12,2,12,0.00
2013-9-23,76,61,50,63,57,50,98,87,58,30.06,29.94,6,0,6,0.00
2013-9-24,70,62,56,65,60,55,96,93,82,30.07,29.93,6,0,6,0.05
2013-9-25,65,63,61,64,62,61,98,97,93,29.93,29.85,3,0,3,2.05
2013-9-26,74,65,61,66,62,60,98,90,68,30.04,29.89,14,2,14,0.01
2013-9-27,76,63,54,64,59,53,98,87,55,30.18,30.04,9,1,9,0.00
2013-9-28,75,62,52,62,57,51,97,85,59,30.24,30.12,7,0,7,0.00
2013-9-29,70,60,51,60,56,50,96,87,64,30.18,30.06,6,0,6,0.00
2013-9-30,74,61,52,60,56,51,97,85,56,30.13,30.02,8,0,8,0.00
2013-10-1,76,62,53,66,58,52,97,88,59,30.21,30.09,8,1,8,0.00
2013-10-2,79,65,54,67,61,54,98,88,61,30.22,30.08,7,0,8,0.00
2013-10-3,79,67,61,65,62,60,96,84,59,30.16,30.07,6,0,6,0.00
2013-10-4,80,66,55,68,61,54,97,86,57,30.20,30.10,7,0,7,0.00
2013-10-5,83,68,57,68,62,56,97,85,55,30.16,30.02,0,0,0,0.00
2013-10-6,78,67,59,68,63,58,97,88,65,30.05,29.85,13,0,13,0.31
2013-10-7,65,58,51,63,54,49,97,89,68,30.05,29.83,25,4,28,0.54
2013-10-8,75,58,46,63,54,45,97,86,61,30.19,30.05,7,0,7,0.00
2013-10-9,75,60,50,64,55,49,97,85,63,30.23,30.13,14,1,14,0.00
2013-10-10,70,59,49,61,54,48,98,86,62,30.19,30.07,22,3,24,0.00
2013-10-11,72,59,48,60,54,46,97,85,56,30.12,30.03,16,2,17,0.00
2013-10-12,73,59,48,62,55,47,98,87,59,30.16,30.05,17,1,17,0.00
2013-10-13,73,60,50,65,57,49,98,90,70,30.26,30.15,15,1,15,0.00
2013-10-14,72,62,54,64,59,53,98,89,67,30.25,30.13,4,0,4,0.00
2013-10-15,69,61,54,60,57,53,97,89,71,30.18,30.06,5,0,8,0.00
2013-10-16,68,61,55,61,58,54,96,91,77,30.10,30.00,7,0,8,0.01
2013-10-17,67,62,55,66,60,53,97,95,92,30.00,29.89,18,2,18,0.07
2013-10-18,66,54,47,56,51,46,97,88,59,30.09,29.98,10,1,11,0.00
2013-10-19,64,54,50,55,51,48,97,89,68,30.05,29.97,13,2,15,0.00
2013-10-20,64,49,40,48,42,35,96,80,38,30.15,30.04,11,1,11,0.00
2013-10-21,68,51,38,53,46,37,97,83,45,30.21,30.08,12,1,12,0.00
2013-10-22,69,57,52,54,51,47,96,83,52,30.11,29.89,18,2,18,0.00
2013-10-23,53,47,37,50,40,34,92,79,59,30.15,29.86,27,5,27,0.00
2013-10-24,57,44,34,43,38,32,94,81,55,30.30,30.13,12,1,16,0.00
2013-10-25,48,39,30,39,29,24,90,69,39,30.48,30.30,24,5,25,0.00
2013-10-26,58,41,28,36,31,26,95,72,38,30.44,30.24,11,1,14,0.00
2013-10-27,61,52,46,52,46,33,91,79,57,30.26,30.16,9,0,9,0.00
2013-10-28,59,55,50,56,52,49,97,91,81,30.34,30.19,16,0,16,0.09
2013-10-29,69,56,48,58,53,47,97,89,67,30.41,30.30,7,0,7,0.00
2013-10-30,74,61,53,60,56,51,97,84,59,30.35,30.19,11,1,11,0.00
2013-10-31,69,64,60,62,58,54,94,82,75,30.20,29.78,10,1,18,0.01
2013-11-1,71,63,52,62,54,46,95,77,42,29.84,29.71,16,3,17,0.11
2013-11-2,60,51,44,49,43,38,94,75,50,30.11,29.82,23,4,23,0.00
2013-11-3,59,46,39,43,40,38,95,80,51,30.38,30.10,13,2,13,0.00
2013-11-4,61,48,38,42,38,36,94,70,43,30.50,30.37,9,1,9,0.00
2013-11-5,68,52,42,47,40,34,82,64,44,30.52,30.38,7,0,7,0.00
2013-11-6,69,59,50,57,52,37,93,79,55,30.40,30.14,4,1,9,0.00
2013-11-7,60,51,41,57,46,32,95,84,67,30.28,30.05,25,6,25,0.19
2013-11-8,55,43,35,33,28,20,83,57,28,30.43,30.28,21,5,21,0.00
2013-11-9,55,43,31,38,32,28,91,68,40,30.44,30.32,8,0,8,0.00
2013-11-10,64,50,40,44,37,31,87,64,35,30.39,30.29,14,3,19,0.00
2013-11-11,66,49,32,38,32,28,89,57,25,30.38,30.24,5,1,8,0.00
2013-11-12,51,40,28,42,30,17,83,69,58,30.55,30.20,28,8,39,0.00
2013-11-13,46,31,20,21,18,16,88,62,33,30.71,30.54,11,2,12,0.00
2013-11-14,59,40,24,27,20,14,86,49,18,30.60,30.40,5,1,9,0.00
2013-11-15,51,44,36,50,37,19,97,79,40,30.41,30.20,5,1,6,0.01
2013-11-16,62,56,51,59,54,50,97,92,81,30.28,30.18,7,0,12,0.00
2013-11-17,64,61,58,63,58,55,97,92,85,30.19,29.93,6,1,12,0.00
2013-11-18,65,56,46,64,44,33,97,67,40,30.13,29.92,19,8,40,0.00
2013-11-19,55,44,37,34,30,26,73,59,37,30.26,30.11,24,4,24,0.00
2013-11-20,56,46,38,37,31,26,75,57,38,30.41,30.24,10,1,11,0.00
2013-11-21,61,53,43,55,48,32,92,82,64,30.45,30.34,9,1,9,0.00
2013-11-22,61,58,56,59,56,54,96,94,91,30.38,30.22,11,1,11,0.01
2013-11-23,57,45,33,56,42,24,97,90,68,30.37,30.18,31,8,31,0.00
2013-11-24,39,29,22,24,17,12,80,62,39,30.57,30.36,28,6,28,0.00
2013-11-25,45,36,26,36,21,5,94,57,20,30.57,30.29,9,1,9,0.01
2013-11-26,48,43,38,48,42,36,98,97,94,30.29,29.76,22,3,22,0.00
2013-11-27,38,30,24,37,27,19,97,88,76,30.32,29.78,35,12,35,0.00
2013-11-28,47,30,18,27,21,14,94,73,29,30.56,30.33,14,1,14,0.02
2013-11-29,53,36,25,35,28,23,94,74,44,30.64,30.51,6,1,9,0.00
2013-11-30,54,41,33,32,27,24,78,60,37,30.60,30.37,5,1,7,0.00
2013-12-1,54,43,33,41,34,25,87,70,56,30.38,30.08,7,1,9,0.00
2013-12-2,47,44,41,46,42,37,97,92,78,30.08,29.89,5,0,7,0.13
2013-12-3,54,51,47,53,50,46,98,96,93,29.96,29.89,6,0,7,0.01
2013-12-4,66,58,52,60,56,51,97,92,81,30.06,29.95,14,1,14,0.00
2013-12-5,68,64,59,65,62,57,97,95,90,30.10,29.98,20,2,20,0.38
2013-12-6,72,64,48,65,61,47,96,89,77,30.08,29.92,30,5,42,0.70
2013-12-7,48,39,36,47,38,35,97,96,95,30.40,30.07,13,3,27,0.00
2013-12-8,50,45,38,49,44,37,98,97,96,30.38,30.15,11,1,13,1.05
2013-12-9,52,50,47,52,49,46,98,97,96,30.20,30.05,12,1,12,0.35
2013-12-10,48,38,28,47,36,26,97,91,75,30.42,30.01,35,6,35,0.41
2013-12-11,50,35,23,34,25,21,96,73,38,30.57,30.41,11,2,11,0.01
2013-12-12,39,31,25,26,21,13,90,68,36,30.56,30.47,15,5,22,0.00
2013-12-13,49,35,22,27,22,19,90,63,37,30.52,30.26,5,1,6,0.00
2013-12-14,51,48,43,50,43,24,97,86,47,30.29,29.87,11,2,18,0.56
2013-12-15,49,34,29,48,32,27,97,93,89,30.30,29.89,25,8,26,0.01
2013-12-16,52,36,25,37,30,24,96,80,46,30.37,30.26,9,1,12,0.00
2013-12-17,56,43,29,39,34,27,95,72,50,30.31,30.14,35,4,36,0.00
2013-12-18,47,37,29,27,22,14,78,56,30,30.40,30.28,19,3,20,0.00
2013-12-19,61,43,30,30,24,17,75,49,23,30.43,30.27,11,1,11,0.00
2013-12-20,62,53,45,53,40,28,86,63,44,30.28,30.15,7,1,12,0.00
2013-12-21,65,61,57,63,59,53,96,92,86,30.15,29.92,10,2,17,0.10
2013-12-22,67,58,52,64,56,52,97,95,85,30.13,29.87,13,2,30,2.10
2013-12-23,52,43,32,52,42,30,97,96,92,30.35,30.06,18,6,24,0.15
2013-12-24,33,29,23,30,24,18,93,80,60,30.52,30.35,26,6,27,0.00
2013-12-25,44,30,20,27,22,18,94,74,43,30.58,30.44,9,1,9,0.00
2013-12-26,48,34,25,32,26,23,94,75,46,30.50,30.38,11,1,11,0.00
2013-12-27,51,36,25,32,27,23,95,73,39,30.56,30.42,6,1,6,0.00
2013-12-28,42,35,29,41,32,26,97,90,76,30.49,30.02,8,1,8,1.17
2013-12-29,47,44,39,46,42,38,97,95,88,30.13,29.93,15,3,18,0.26
2013-12-30,42,39,35,40,37,33,97,94,88,30.29,30.10,14,2,14,0.00
2013-12-31,41,34,29,33,28,23,96,81,54,30.51,30.27,18,2,18,0.00
2014-1-1,48,36,27,35,29,25,94,76,46,30.46,30.21,9,0,9,0.00
2014-1-2,45,36,19,44,33,16,97,89,78,30.21,29.83,46,7,46,0.17